Miscellaneous Local Product
Issued by NWS Hastings, NE

Home | Current Version | Previous Version | Text Only | Print | Product List | Glossary Off
Versions: 1 2 3 4 5 6 7 8 9 10 11 12 13 14 15 16 17 18 19 20 21 22 23 24 25 26 27 28 29 30 31 32 33 34 35 36 37 38 39 40 41 42 43 44 45 46 47 48 49 50

000
AXUS43 KGID 250102
MISGRI

GID CWA HOURLY WEATHER ROUNDUP
NATIONAL WEATHER SERVICE HASTINGS NE
700 PM CST SAT JAN 24 2015

NOTE: "FAIR" INDICATES FEW OR NO CLOUDS BELOW 12,000 FEET WITH NO
SIGNIFICANT WEATHER AND/OR OBSTRUCTIONS TO VISIBILITY.

...SOUTH CENTRAL NEBRASKA...

CITY           SKY/WX    TMP DP  RH WIND       PRES   REMARKS
GRAND ISLAND   CLOUDY    48  40  73 NW17      29.73S
HASTINGS       CLOUDY    45  27  49 W7        29.74R
KEARNEY        CLOUDY    48  28  46 W12       29.76R
ORD            CLOUDY    43  39  86 W7        29.70F
YORK           LGT RAIN  45  37  76 W20G25    29.71R
AURORA         CLOUDY    46  37  69 NW16      29.72R
LEXINGTON      DRIZZLE   48  33  55 NW20      29.79R
HOLDREGE       CLOUDY    47  27  47 W16       29.77S
HEBRON         LGT RAIN  50  26  40 W10       29.75R

...NEBRASKA PANHANDLE...

CITY           SKY/WX    TMP DP  RH WIND       PRES   REMARKS
CHADRON        MOCLDY    41  34  76 W21G30    29.93R
ALLIANCE       CLOUDY    40  34  79 NW26G35   29.92R WCI  29
SCOTTSBLUFF    LGT RAIN  39  36  89 NW22G43   30.03R WCI  29
SIDNEY         PTCLDY    41  32  70 NW26G39   29.97R

...WESTERN AND NORTH CENTRAL NEBRASKA...

CITY           SKY/WX    TMP DP  RH WIND       PRES   REMARKS
VALENTINE      MOCLDY    45  36  70 NW23G30   29.75R
AINSWORTH      CLOUDY    46  37  71 NW28G38   29.72R
ONEILL         CLOUDY    46  42  88 W14       29.65F
BROKEN BOW     CLOUDY    50  35  56 NW23G32   29.75R
IMPERIAL       CLOUDY    48  27  44 NW18G28   29.89R
NORTH PLATTE   CLOUDY    47  37  68 NW20G26   29.86R
MCCOOK         CLOUDY    46  33  60 W15       29.85R

...EASTERN NEBRASKA...

CITY           SKY/WX    TMP DP  RH WIND       PRES   REMARKS
NORFOLK        LGT RAIN  47  41  80 W16       29.62S
SO SIOUX CITY  CLOUDY    45  37  73 SW7       29.59F
TEKAMAH        LGT RAIN  47  33  58 W8        29.63S
COLUMBUS       CLOUDY    46  32  57 W15G22    29.68R
ALBION         LGT RAIN  47  41  79 NW20G30   29.68R
OMAHA EPPLEY   CLOUDY    49  31  49 SW3       29.64S
OFFUTT AFB     CLOUDY    48  31  50 CALM      29.64F
MILLARD        CLOUDY    51  32  48 SW3       29.64F
LINCOLN        LGT RAIN  48  36  63 W14       29.70R
NEBRASKA CITY  CLOUDY    47  22  37 W8        29.68S
BEATRICE       CLOUDY    49  28  45 W7        29.71S
FALLS CITY     CLOUDY    50  27  40 W10       29.69F

...NORTHERN KANSAS...

CITY           SKY/WX    TMP DP  RH WIND       PRES   REMARKS
GOODLAND       CLOUDY    41  30  65 NW9       29.94R
HILL CITY      CLOUDY    46  38  73 W13       29.85R
NORTON         CLOUDY    45  34  65 W14       29.82
PHILLIPSBURG   MOCLDY    54  36  50 W18G24    29.82R
SMITH CENTER   PTCLDY    48  30  49 W14       29.79F
BELOIT         CLOUDY    48  36  61 W7        29.79R
HAYS           CLOUDY    48  36  61 W12       29.86S
RUSSELL        LGT RAIN  49  41  74 W16       29.83R
CONCORDIA      LGT RAIN  52  32  46 W20G33    29.77R
SALINA         CLOUDY    57  27  31 W13       29.80R
TOPEKA         CLOUDY    54  28  36 SW7       29.73F



USA.gov is the U.S. government's official web portal to all federal, state and local government web resources and services.